Regional Weather Roundup
Issued by NWS

Home | Current Version | Previous Version | Text Only | Print | Product List | Glossary Off
Versions: 1 2 3 4 5 6 7 8 9 10 11 12 13 14 15 16 17 18 19 20 21 22 23 24 25 26 27 28

000
ASUS45 KSLC 200910
RWRUT

UTAH REGIONAL WEATHER ROUNDUP
NATIONAL WEATHER SERVICE SALT LAKE CITY UT
200 AM MST FRI JAN 20 2017

UTZ001>011-023>025-201000-

NORTHERN UTAH

CITY           SKY/WX    TMP DP  RH WIND       PRES   REMARKS
BRIGHAM CITY     N/A     30  28  93 CALM      29.66S
HILL AFB       FRZ DRZL  30  28  93 W3        29.64R VSB 1/2
LOGAN          FOG       26  25  96 NW3       29.64F VSB 1
OGDEN          CLOUDY    29  29 100 W3        29.64S FOG
SALT LAKE CITY FOG       30  30 100 CALM      29.65F VSB 1/4
TOOELE VALLEY  FOG       30  30 100 CALM      29.66S VSB 1/4
WENDOVER       CLOUDY    25  23  93 SW3       29.68S VSB 1/4
HEBER CITY     CLOUDY    28  28 100 CALM      29.59F
WEST JORDAN    CLOUDY    30  30 100 CALM      29.65F VSB 1/4

$$

UTZ011>015-024>027-201000-

CENTRAL/NORTHEAST UTAH

CITY           SKY/WX    TMP DP  RH WIND       PRES   REMARKS
PROVO AIRPORT  FOG       32  31  96 N3        29.65F VSB 1/2
MOAB/CANYONLAN LGT SNOW  31  31 100 NW7       29.61S FOG     WCI  24
DELTA          CLOUDY    32  32 100 W5        29.65S WCI  27
PRICE          PTCLDY    20  19  96 N3        29.59F
RICHFIELD      MOCLDY    28  28 100 MISG      29.66S
ROOSEVELT      CLOUDY    16  12  86 CALM      29.68S FOG
VERNAL         LGT SNOW  17  14  88 CALM      29.66F FOG

$$

UTZ013>016-019>022-027-201000-

SOUTHERN UTAH

CITY           SKY/WX    TMP DP  RH WIND       PRES   REMARKS
BRYCE CANYON   CLOUDY    22  19  89 CALM      29.63F
CEDAR CITY     CLOUDY    28  25  88 SW7       29.67F WCI  21
MILFORD        MOCLDY    30  28  92 S6        29.66F WCI  24
ST GEORGE      CLOUDY    39  34  81 N3        29.77S
HANKSVILLE     CLOUDY    32  32 100 MISG      29.65F
KANAB          PTCLDY    32  30  93 S7        29.76S WCI  26
BLANDING       CLOUDY    30  30 100 S12       29.72S WCI  21

$$

REGIONAL REPORTS     COLORADO/ARIZONA

CITY           SKY/WX    TMP DP  RH WIND       PRES   REMARKS
CRAIG, CO      LGT SNOW  28  25  88 CALM      29.60S FOG
GRAND JUNCTION FOG       31  31 100 CALM      29.61S VSB 1/2
RIFLE, CO      LGT SNOW  30  30 100 CALM      29.60F FOG
MONTROSE, CO   CLOUDY    31  31 100 CALM      29.62F
CORTEZ, CO     CLOUDY    32  30  92 SW15      29.67S WCI  22
COLORADO CITY  CLOUDY    32  32 100 CALM      29.75S
PAGE, AZ       CLOUDY    38  32  79 NW3       29.69R
GRAND CANYON   FLURRIES  28  28 100 SW12      29.74S WCI  18
KINGMAN, AZ    MOCLDY    40  35  83 SE6       29.76F
FLAGSTAFF, AZ  LGT SNOW  28  26  92 SW18      29.73F VSB 1   WCI  15

$$

REGIONAL REPORTS    NEVADA/IDAHO/WYOMING

CITY           SKY/WX    TMP DP  RH WIND       PRES   REMARKS
LAS VEGAS, NV  MOCLDY    45  40  82 NE5       29.68F
ELY, NY        CLOUDY    17  16  95 S6        29.65F WCI   9
ELKO, NV       PTCLDY    18  14  84 E5        29.62F WCI  11
POCATELLO, ID  LGT SNOW  30  27  88 SE5       29.62F FOG     WCI  25
BURLEY, ID     CLOUDY    34  28  79 SW8       29.61F WCI  27
FORT BRIDGER,    N/A     23  23 100 W8        29.61S WCI  14
EVANSTON, WY   FOG       22  19  89 W9        29.58F VSB 1/4 WCI  12
ROCK SPRINGS,  CLOUDY    24  22  91 W9        29.57F WCI  14

$$




USA.gov is the U.S. government's official web portal to all federal, state and local government web resources and services.